Retour au catalogue

STARLINK-5064

ActifCommunicationsVLEO
NORAD 55428·PAYLOAD·🇺🇸 United States

Lancé Jan 31, 2023 depuis Vandenberg Space Force Base

Loading…

Prochains Passages (prochaines 24 heures)

TLE

FraisSource: CelesTrak SupGP

Époque: Sep 15, 2026, 01:34 UTC

1 55428C 23014AP  26258.06576389  .00073816  00000+0  61865-2 0  2581
2 55428  70.0015 327.1591 0003721 264.7012 117.9109 14.98289273    14

Suivez STARLINK-5064 en temps réel avec AllMySat

Download on the App Store